Regional Weather Roundup
Issued by NWS

Home | Current Version | Previous Version | Text Only | Print | Product List | Glossary On
Versions: 1 2 3 4 5 6 7 8 9 10 11 12 13 14 15 16 17 18 19 20 21 22 23 24 25 26 27
000
ASUS45 KREV 161510
RWRNV
NEVADA REGIONAL WEATHER ROUNDUP
NATIONAL WEATHER SERVICE RENO NV
700 AM PST MON JAN 16 2017

NOTE: "FAIR" INDICATES FEW OR NO CLOUDS BELOW 12,000 FEET WITH NO
SIGNIFICANT WEATHER AND/OR OBSTRUCTIONS TO VISIBILITY.

NVZ001-003-004-161600-
WESTERN NEVADA

CITY           SKY/WX    TMP DP  RH WIND       PRES   REMARKS
RENO           MOCLDY    24  19  81 SW3       30.33R
CARSON CITY    CLOUDY    25  21  86 CALM      30.34S
MINDEN         CLOUDY    25  19  80 CALM      30.34R
PYRAMID LAKE     N/A     32 N/A N/A SE8         N/A
FALLON         NOT AVBL
LOVELOCK       CLOUDY    30  22  72 CALM      30.35R
HAWTHORNE        N/A     32  25  74 CALM      30.34R
$$

NVZ002-CAZ072-073-161600-
NORTHERN AND CENTRAL SIERRA

CITY           SKY/WX    TMP DP  RH WIND       PRES   REMARKS
S. LAKE TAHOE  PTCLDY    13   9  84 S3        30.22R
TRUCKEE        CLOUDY    18  16  93 E6        30.27R
SQUAW VLY 8000   N/A     21  21 100 E8          N/A
SUSANVILLE     CLOUDY   N/A N/A N/A NE5       30.33R
MAMMOTH LAKES  FAIR      15   5  64 NW3       30.22R
BRIDGEPORT       N/A     -5 -10  79 CALM      30.23S
$$

NVZ030-031-036-161600-
NORTHERN NEVADA

CITY           SKY/WX    TMP DP  RH WIND       PRES   REMARKS
ELKO           CLOUDY    20  16  84 W8        30.29R
WINNEMUCCA     CLOUDY    25  21  85 CALM      30.33S
WENDOVER       CLOUDY    21  18  86 CALM      30.28R
$$

NVZ035-037-161600-
CENTRAL NEVADA

CITY           SKY/WX    TMP DP  RH WIND       PRES   REMARKS
ELY            CLOUDY    18  16  92 N14       30.19S
EUREKA           N/A     20  15  81 N5        30.25R
$$

NVZ013-014-161600-
SOUTH CENTRAL NEVADA

CITY           SKY/WX    TMP DP  RH WIND       PRES   REMARKS
TONOPAH        CLEAR     21  14  74 N12       30.20R
$$

NVZ017-020-022-161600-
SOUTHERN NEVADA

CITY           SKY/WX    TMP DP  RH WIND       PRES   REMARKS
LAS VEGAS      PTCLDY    42  25  50 E14       30.10R
N. LAS VEGAS   PTCLDY    44  24  45 N8        30.10S
NELLIS AFB     CLEAR     43  25  48 N13G18    30.12R
HENDERSON      PTCLDY    40  26  57 NE7       30.13R
MERCURY        NOT AVBL
$$




USA.gov is the U.S. government's official web portal to all federal, state and local government web resources and services.